Location: Lafig�re
(44.4503°N, 4.0357°E)
Time: 16:26:28
(UTC+00:00)

CZ-2C R/B - Pass Details

Date: 24 September 2020
Orbit: 704 x 908 km, 98.1° (Epoch: 25 October)

Event Time Altitude Azimuth Distance (km) Brightness Sun altitude
Rises 18:46:13 0° 172° (S) 3,292 6.1 -13.1°
Reaches altitude 10° 18:48:30 10° 175° (S) 2,396 5.4 -13.5°
Maximum altitude 18:53:49 70° 258° (WSW) 901 3.5 -14.4°
Drops below altitude 10° 18:59:28 10° 343° (NNW) 2,538 6.1 -15.4°
Sets 19:01:56 0° 345° (NNW) 3,502 6.8 -15.9°
